IGO247 VABB-VECC

Flight info

Callsign IGO247
Flight time N/A
Altitude 37000
Route ANOLI2A NONEN Q19 KAMLO W108 NNP G450 JJS JJS2A
Aircraft A20N/M-SDE2E3FGHIRWXY/LB1

Departure

Time 2026-05-06 20:37
Airport Chhatrapati Shivaji Maharaj International Airport (VABB)

Arrival

Time N/A
Airport Netaji Subhash Chandra Bose International Airport (VECC)
Time Latitude Longitude Altitude Speed Heading
2026-05-06 20:13 19.09419 72.87280 49 ft 0 kts 299°
2026-05-06 20:23 19.09418 72.87282 49 ft 2 kts 299°
2026-05-06 20:23 19.09407 72.87302 47 ft 4 kts 299°
2026-05-06 20:24 19.09393 72.87327 47 ft 2 kts 298°
2026-05-06 20:24 19.09389 72.87337 49 ft 0 kts 290°
2026-05-06 20:24 19.09383 72.87369 49 ft 5 kts 266°
2026-05-06 20:24 19.09393 72.87405 48 ft 5 kts 234°
2026-05-06 20:25 19.09397 72.87411 47 ft 1 kts 230°
2026-05-06 20:25 19.09394 72.87406 48 ft 0 kts 230°
2026-05-06 20:26 19.09367 72.87378 45 ft 15 kts 220°
2026-05-06 20:27 19.09265 72.87362 49 ft 6 kts 194°
2026-05-06 20:27 19.09228 72.87283 49 ft 17 kts 233°
2026-05-06 20:27 19.09168 72.87256 49 ft 19 kts 177°
2026-05-06 20:27 19.09045 72.87290 49 ft 9 kts 116°
2026-05-06 20:28 19.09050 72.87404 49 ft 22 kts 87°
2026-05-06 20:28 19.09055 72.87591 49 ft 27 kts 89°
2026-05-06 20:28 19.09058 72.87801 48 ft 25 kts 88°
2026-05-06 20:28 19.09058 72.87980 48 ft 23 kts 90°
2026-05-06 20:29 19.08997 72.88052 47 ft 0 kts 186°
2026-05-06 20:29 19.08959 72.88051 46 ft 11 kts 182°
2026-05-06 20:29 19.08889 72.87996 47 ft 15 kts 259°
2026-05-06 20:29 19.08892 72.87892 47 ft 18 kts 264°
2026-05-06 20:30 19.08975 72.87807 48 ft 17 kts 350°
2026-05-06 20:30 19.09060 72.87886 48 ft 0 kts 75°
2026-05-06 20:33 19.09059 72.87895 48 ft 4 kts 93°
2026-05-06 20:33 19.09058 72.87949 48 ft 12 kts 88°
2026-05-06 20:33 19.09048 72.88046 48 ft 11 kts 121°
2026-05-06 20:34 19.08999 72.88049 47 ft 0 kts 166°
2026-05-06 20:35 19.08973 72.88051 45 ft 9 kts 182°
2026-05-06 20:35 19.08902 72.88015 42 ft 15 kts 244°
2026-05-06 20:35 19.08889 72.87967 47 ft 8 kts 259°
2026-05-06 20:36 19.08885 72.87853 48 ft 17 kts 269°
2026-05-06 20:36 19.08884 72.87755 48 ft 13 kts 269°
2026-05-06 20:36 19.08880 72.87574 48 ft 57 kts 269°
2026-05-06 20:36 19.08872 72.86859 52 ft 133 kts 270°
2026-05-06 20:37 19.08856 72.85673 175 ft 182 kts 270°
2026-05-06 20:37 19.08835 72.84247 703 ft 197 kts 271°
2026-05-06 20:37 19.08817 72.82989 999 ft 173 kts 271°
2026-05-06 20:37 19.08807 72.81519 1101 ft 215 kts 271°
2026-05-06 20:38 19.08783 72.79830 1739 ft 243 kts 270°
2026-05-06 20:38 19.08756 72.77960 2464 ft 263 kts 270°
2026-05-06 20:38 19.08721 72.75982 3323 ft 273 kts 271°
2026-05-06 20:38 19.08719 72.74012 4370 ft 271 kts 278°
2026-05-06 20:39 19.09302 72.72113 5132 ft 278 kts 302°
2026-05-06 20:39 19.10666 72.70626 5796 ft 290 kts 327°
2026-05-06 20:39 19.12557 72.69931 6709 ft 288 kts 355°
2026-05-06 20:39 19.14486 72.70202 7900 ft 276 kts 22°
2026-05-06 20:40 19.16079 72.71216 9172 ft 259 kts 40°
2026-05-06 20:40 19.17455 72.72408 10268 ft 256 kts 41°
2026-05-06 20:40 19.18965 72.73449 11046 ft 263 kts 26°
2026-05-06 20:40 19.20712 72.74063 11830 ft 268 kts 12°
2026-05-06 20:41 19.21943 72.74249 12369 ft 270 kts
2026-05-06 20:41 19.24477 72.74296 13440 ft 275 kts 358°
2026-05-06 20:41 19.25747 72.74237 13908 ft 276 kts 357°
2026-05-06 20:41 19.27667 72.74116 14634 ft 278 kts 356°
2026-05-06 20:42 19.30281 72.74363 15165 ft 301 kts 21°
2026-05-06 20:42 19.32139 72.75548 15371 ft 324 kts 39°
2026-05-06 20:42 19.33895 72.77180 15580 ft 347 kts 42°
2026-05-06 20:42 19.35090 72.78365 15717 ft 362 kts 43°
2026-05-06 20:43 19.36979 72.80234 16017 ft 379 kts 42°
2026-05-06 20:43 19.38940 72.82132 16713 ft 384 kts 41°
2026-05-06 20:43 19.40939 72.84031 17444 ft 388 kts 40°
2026-05-06 20:43 19.42969 72.85937 18134 ft 392 kts 39°
2026-05-06 20:44 19.44902 72.88005 18739 ft 399 kts 50°
2026-05-06 20:44 19.46345 72.90544 19304 ft 408 kts 65°
2026-05-06 20:44 19.47177 72.93451 19850 ft 416 kts 76°
2026-05-06 20:44 19.47785 72.96474 20382 ft 422 kts 76°
2026-05-06 20:45 19.48400 72.99528 20919 ft 427 kts 76°
2026-05-06 20:45 19.49030 73.02630 21424 ft 432 kts 75°
2026-05-06 20:45 19.49668 73.05762 21913 ft 437 kts 75°
2026-05-06 20:45 19.50312 73.08890 22374 ft 442 kts 75°
2026-05-06 20:46 19.50987 73.12083 22840 ft 446 kts 74°
2026-05-06 20:46 19.51677 73.15318 23289 ft 451 kts 74°
2026-05-06 20:46 19.52371 73.18579 23670 ft 454 kts 74°
2026-05-06 20:46 19.53066 73.21858 24110 ft 456 kts 74°
2026-05-06 20:47 19.53754 73.25111 24526 ft 458 kts 74°
2026-05-06 20:47 19.54451 73.28409 24914 ft 460 kts 75°
2026-05-06 20:47 19.55152 73.31733 25279 ft 462 kts 75°
2026-05-06 20:47 19.55853 73.35071 25596 ft 464 kts 76°
2026-05-06 20:48 19.56329 73.38473 25910 ft 468 kts 82°
2026-05-06 20:48 19.56662 73.41925 26226 ft 470 kts 82°
2026-05-06 20:48 19.57003 73.45383 26549 ft 472 kts 82°
2026-05-06 20:48 19.57346 73.48853 26753 ft 474 kts 82°
2026-05-06 20:49 19.57686 73.52282 26813 ft 474 kts 82°
2026-05-06 20:49 19.58030 73.55765 26820 ft 474 kts 82°
2026-05-06 20:49 19.58372 73.59241 26827 ft 474 kts 82°
2026-05-06 20:49 19.58714 73.62715 26827 ft 474 kts 82°
2026-05-06 20:50 19.59195 73.66175 26827 ft 473 kts 75°
2026-05-06 20:50 19.60104 73.69518 26830 ft 470 kts 67°
2026-05-06 20:50 19.61419 73.72679 26829 ft 466 kts 59°
2026-05-06 20:50 19.62964 73.75707 26836 ft 467 kts 58°
2026-05-06 20:51 19.64507 73.78753 26832 ft 467 kts 58°
2026-05-06 20:51 19.66023 73.81757 26830 ft 468 kts 58°
2026-05-06 20:51 19.67554 73.84797 26830 ft 467 kts 58°
2026-05-06 20:51 19.69090 73.87847 26833 ft 468 kts 59°
2026-05-06 20:52 19.70627 73.90898 26831 ft 468 kts 58°
2026-05-06 20:52 19.72162 73.93948 26829 ft 468 kts 58°
2026-05-06 20:52 19.73694 73.96991 26828 ft 468 kts 58°
2026-05-06 20:52 19.75229 74.00043 26828 ft 468 kts 59°
2026-05-06 20:53 19.76597 74.03199 26821 ft 471 kts 66°
2026-05-06 20:53 19.77755 74.06456 26824 ft 472 kts 66°
2026-05-06 20:53 19.78922 74.09713 26822 ft 472 kts 66°
2026-05-06 20:53 19.80096 74.12977 26818 ft 472 kts 66°
2026-05-06 20:54 19.81256 74.16204 26816 ft 472 kts 66°
2026-05-06 20:54 19.82429 74.19469 26810 ft 472 kts 66°
2026-05-06 20:54 19.83599 74.22731 26809 ft 472 kts 66°
2026-05-06 20:54 19.84768 74.25991 26805 ft 472 kts 66°
2026-05-06 20:55 19.85937 74.29255 26808 ft 473 kts 66°
2026-05-06 20:55 19.87107 74.32524 26806 ft 473 kts 66°
2026-05-06 20:55 19.88275 74.35790 26799 ft 473 kts 66°
2026-05-06 20:55 19.89443 74.39059 26800 ft 473 kts 66°
2026-05-06 20:56 19.90610 74.42326 26798 ft 473 kts 66°
2026-05-06 20:56 19.91780 74.45603 26797 ft 473 kts 66°
2026-05-06 20:56 19.92942 74.48861 26795 ft 473 kts 66°
2026-05-06 20:56 19.94113 74.52145 26793 ft 474 kts 66°
2026-05-06 20:57 19.95280 74.55423 26796 ft 474 kts 66°
2026-05-06 20:57 19.96449 74.58705 26788 ft 474 kts 66°
2026-05-06 20:57 19.97598 74.61934 26791 ft 474 kts 66°
2026-05-06 20:57 19.98764 74.65213 26791 ft 474 kts 66°
2026-05-06 20:58 19.99932 74.68501 26787 ft 474 kts 66°
2026-05-06 20:58 20.01101 74.71778 26790 ft 474 kts 65°
2026-05-06 20:58 20.02300 74.75041 26790 ft 474 kts 65°
2026-05-06 20:58 20.03514 74.78310 26788 ft 475 kts 65°
2026-05-06 20:59 20.04724 74.81571 26786 ft 475 kts 65°
2026-05-06 20:59 20.05932 74.84835 26786 ft 475 kts 65°
2026-05-06 20:59 20.07138 74.88105 26921 ft 473 kts 65°
2026-05-06 20:59 20.08321 74.91324 27755 ft 459 kts 65°
2026-05-06 21:00 20.09453 74.94416 28889 ft 438 kts 65°
2026-05-06 21:00 20.10535 74.97370 30010 ft 417 kts 65°
2026-05-06 21:00 20.11568 75.00189 30858 ft 401 kts 65°
2026-05-06 21:00 20.12586 75.02954 31125 ft 403 kts 65°
2026-05-06 21:01 20.13606 75.05723 31276 ft 407 kts 65°
2026-05-06 21:01 20.14641 75.08536 31487 ft 409 kts 65°
2026-05-06 21:01 20.15679 75.11366 31720 ft 410 kts 65°
2026-05-06 21:01 20.16718 75.14201 31937 ft 412 kts 65°
2026-05-06 21:02 20.17756 75.17041 32145 ft 413 kts 65°
2026-05-06 21:02 20.18793 75.19876 32350 ft 415 kts 65°
2026-05-06 21:02 20.19845 75.22755 32521 ft 417 kts 65°
2026-05-06 21:02 20.20899 75.25641 32734 ft 419 kts 65°
2026-05-06 21:03 20.21960 75.28546 32787 ft 425 kts 66°
2026-05-06 21:03 20.24128 75.34490 33179 ft 427 kts 66°
2026-05-06 21:03 20.25192 75.37415 33599 ft 423 kts 66°
2026-05-06 21:04 20.26256 75.40338 33756 ft 426 kts 66°
2026-05-06 21:04 20.28429 75.46304 33779 ft 438 kts 66°
2026-05-06 21:05 20.30409 75.52544 33776 ft 452 kts 72°
2026-05-06 21:05 20.32140 75.59077 33783 ft 465 kts 72°
2026-05-06 21:06 20.33930 75.65798 33783 ft 478 kts 72°
2026-05-06 21:06 20.35751 75.72652 33787 ft 489 kts 72°
2026-05-06 21:07 20.37623 75.79713 33783 ft 500 kts 72°
2026-05-06 21:07 20.38894 75.84520 33786 ft 500 kts 72°
2026-05-06 21:08 20.40050 75.88897 33785 ft 499 kts 72°
2026-05-06 21:08 20.41920 75.95984 33787 ft 500 kts 72°
2026-05-06 21:09 20.43815 76.03116 33791 ft 500 kts 71°
2026-05-06 21:09 20.45792 76.10233 33791 ft 500 kts 71°
2026-05-06 21:10 20.47774 76.17367 33787 ft 501 kts 71°
2026-05-06 21:10 20.49731 76.24460 33790 ft 501 kts 71°
2026-05-06 21:11 20.51694 76.31601 33787 ft 502 kts 71°
2026-05-06 21:11 20.53658 76.38756 33791 ft 502 kts 71°
2026-05-06 21:12 20.55619 76.45915 33785 ft 503 kts 71°
2026-05-06 21:12 20.57580 76.53086 33788 ft 504 kts 71°
2026-05-06 21:13 20.59543 76.60272 33787 ft 504 kts 71°
2026-05-06 21:13 20.61502 76.67460 33785 ft 505 kts 71°
2026-05-06 21:14 20.63465 76.74677 33787 ft 505 kts 71°
2026-05-06 21:14 20.65422 76.81884 33784 ft 506 kts 71°
2026-05-06 21:15 20.67379 76.89104 33782 ft 506 kts 72°
2026-05-06 21:15 20.69323 76.96286 33781 ft 507 kts 72°
2026-05-06 21:16 20.71281 77.03534 33779 ft 507 kts 72°
2026-05-06 21:16 20.73236 77.10783 33783 ft 508 kts 72°
2026-05-06 21:17 20.75187 77.18033 33783 ft 508 kts 72°
2026-05-06 21:17 20.77143 77.25314 33787 ft 508 kts 72°
2026-05-06 21:18 20.79081 77.32540 33790 ft 509 kts 72°
2026-05-06 21:18 20.81029 77.39819 33794 ft 509 kts 72°
2026-05-06 21:19 20.82981 77.47122 33797 ft 510 kts 72°
2026-05-06 21:19 20.84926 77.54415 33800 ft 510 kts 72°
2026-05-06 21:20 20.86884 77.61661 33804 ft 510 kts 71°
2026-05-06 21:20 20.88882 77.68945 33805 ft 510 kts 72°
2026-05-06 21:21 20.90874 77.76235 33805 ft 511 kts 72°
2026-05-06 21:21 20.92406 77.83660 33810 ft 513 kts 81°
2026-05-06 21:22 20.93398 77.91221 33805 ft 513 kts 81°
2026-05-06 21:22 20.94399 77.98742 33813 ft 513 kts 81°
2026-05-06 21:23 20.95401 78.06316 33810 ft 514 kts 81°
2026-05-06 21:23 20.96399 78.13891 33815 ft 514 kts 81°
2026-05-06 21:24 20.97393 78.21468 33817 ft 515 kts 81°
2026-05-06 21:24 20.98385 78.29060 33815 ft 515 kts 81°
2026-05-06 21:25 20.99375 78.36659 33816 ft 515 kts 81°
2026-05-06 21:25 21.00363 78.44262 33820 ft 516 kts 81°
2026-05-06 21:26 21.01348 78.51877 33822 ft 516 kts 81°